GFSFLT1_sfc_temp_084.txt.gz
Temp
80 80 79 78 78 78 78 78 78 79 79 79 78 79 77 74 70 70 72 72 79 79 78 78 79 78 79 79 80 80 80 79 79
79 78 78 78 78 79 79 79 79 79 79 78 78 77 76 70 69 69 70 73 79 79 78 78 78 78 78 78 79 79 79 79 78
78 78 79 79 79 78 78 78 78 78 78 77 76 76 74 71 69 69 69 77 79 79 78 78 78 78 78 78 78 79 79 79 79
78 79 79 78 78 77 77 77 77 77 76 76 74 74 73 66 68 72 70 78 78 78 78 77 77 78 78 78 78 78 78 78 79
78 77 78 77 77 76 76 75 74 74 74 74 73 71 69 65 66 67 72 78 79 78 77 77 77 77 78 78 78 78 78 78 78
67 75 76 76 75 75 74 73 71 69 70 71 70 66 59 62 63 64 74 77 79 79 78 77 77 77 77 77 77 77 77 77 77
66 70 73 73 73 72 72 70 68 62 55 56 61 56 56 57 58 60 73 75 77 78 78 77 76 76 76 77 77 77 77 77 77
53 52 53 53 62 54 56 54 54 54 54 53 53 54 54 52 54 60 71 73 75 77 77 77 76 76 76 76 76 76 77 77 76
51 51 51 51 51 52 52 51 53 53 54 50 51 50 51 52 53 55 68 70 72 75 77 77 77 76 76 76 76 75 76 76 77
51 51 51 51 51 52 51 51 51 51 52 52 51 50 50 50 51 50 63 68 70 73 74 76 77 76 76 76 75 75 75 75 76
52 52 51 51 51 51 51 50 50 50 51 52 52 50 49 49 50 51 50 66 69 71 73 73 76 76 76 75 74 74 74 74 75
52 52 51 51 51 52 51 51 50 50 52 49 50 51 49 49 50 51 52 52 62 68 69 72 74 75 75 74 74 74 74 74 74
52 52 51 51 51 51 50 50 50 49 49 48 50 49 49 49 50 51 51 51 52 56 66 67 70 72 72 73 74 74 74 74 74
53 52 51 51 51 50 51 48 49 48 48 51 49 48 46 47 52 48 50 50 50 50 59 62 64 67 69 70 71 72 73 74 74
52 51 51 50 50 48 48 48 46 46 45 52 50 46 45 45 45 46 51 49 49 49 50 48 52 62 65 67 69 70 71 72 73
52 50 50 50 50 49 49 47 46 45 43 44 44 44 45 43 44 44 45 47 48 48 48 48 48 50 59 61 65 67 69 71 71
53 52 50 49 48 48 47 47 44 43 43 42 38 38 43 44 46 44 46 44 45 48 49 48 48 47 48 53 60 61 65 68 70
53 51 50 49 47 47 46 45 45 43 41 42 43 37 35 36 42 44 44 44 44 44 45 48 48 48 47 50 52 59 62 65 67
52 52 50 48 46 45 45 46 43 42 42 40 45 40 40 37 35 39 42 43 45 44 44 45 46 47 46 51 55 59 61 62 64
51 50 49 47 45 45 45 43 42 41 41 40 39 37 36 35 35 37 36 40 42 42 43 43 44 45 46 45 49 58 60 61 62

GFSFLT1_sfc_temp_087.txt.gz
Temp
80 80 79 79 79 79 79 79 79 79 79 79 79 78 77 78 81 81 81 82 80 79 79 78 79 79 79 79 80 79 79 79 80
79 79 78 79 79 79 79 79 79 78 78 78 78 77 76 80 80 80 81 81 79 79 79 79 78 79 79 79 79 79 79 79 79
79 79 79 78 78 78 78 78 78 77 76 77 76 75 75 80 80 79 80 78 79 79 78 78 78 78 79 79 79 79 79 79 79
79 78 78 77 77 77 76 76 76 76 75 74 74 73 73 79 78 80 81 78 79 78 78 78 78 78 78 78 79 79 79 79 79
78 77 77 76 76 75 75 74 74 74 74 73 71 70 71 75 75 78 78 78 79 79 78 77 77 77 78 78 78 78 78 78 78
78 76 76 76 75 74 73 72 70 69 70 70 69 69 72 74 74 76 74 76 78 79 78 77 77 77 77 77 78 77 77 77 78
76 75 74 73 73 72 71 69 69 70 71 70 69 71 71 71 71 73 72 74 76 78 78 77 77 77 77 77 77 77 77 77 77
70 68 68 69 67 69 69 70 69 68 69 69 70 69 70 70 70 69 69 72 74 76 77 77 77 77 77 76 76 76 76 77 77
69 68 67 67 68 68 68 68 68 68 69 71 70 70 69 69 69 68 67 70 72 74 75 77 77 76 76 76 75 75 75 76 76
67 67 67 67 68 69 68 68 68 69 69 69 69 68 67 67 67 66 66 69 71 73 74 75 77 77 76 76 75 75 75 75 75
67 67 66 67 67 67 67 68 67 66 69 67 67 66 66 66 66 66 65 66 68 70 73 74 75 76 76 75 75 74 74 75 75
67 66 66 66 67 67 67 67 67 66 66 67 67 65 65 65 66 65 65 65 64 66 68 71 73 74 74 75 75 74 74 74 74
66 66 65 65 66 66 66 66 66 65 65 67 67 66 66 66 66 65 65 64 64 64 65 66 68 70 71 72 72 73 74 74 74
67 66 65 65 65 66 66 65 65 65 65 66 67 66 65 64 66 65 64 62 62 64 63 62 63 66 68 69 71 71 72 72 74
66 65 64 65 64 64 64 65 64 63 62 64 65 65 64 63 64 64 65 63 62 63 62 63 64 62 64 65 67 68 69 71 72
65 65 65 63 64 64 64 63 62 61 61 62 63 64 64 64 63 64 65 63 63 63 63 63 63 64 61 61 64 65 67 68 70
65 64 63 63 62 61 61 61 61 60 60 60 57 56 62 64 63 65 63 63 63 63 63 63 63 62 62 61 60 61 64 66 68
65 64 64 63 62 61 60 59 58 59 58 59 60 55 53 55 62 62 62 62 62 63 62 63 62 62 62 60 60 59 61 63 66
64 64 63 62 61 60 60 59 59 57 58 57 58 59 58 52 51 58 60 62 60 61 61 61 62 62 61 59 58 58 60 61 63
61 62 61 61 60 60 59 58 57 58 58 57 56 55 54 54 50 49 54 57 59 60 59 59 60 61 60 60 59 58 59 60 62

GFSFLT1_sfc_temp_093.txt.gz
Temp
80 80 79 79 79 79 78 78 79 79 79 78 79 79 80 83 85 83 81 80 79 80 79 79 79 79 79 79 79 80 80 79 80
80 79 79 79 78 78 78 78 78 78 78 77 78 78 78 86 83 82 80 79 79 79 79 79 79 79 79 79 79 79 79 78 78
79 78 78 78 77 77 77 77 76 76 76 76 76 77 77 85 83 82 79 78 79 79 78 78 79 79 79 79 79 79 79 79 78
78 77 77 77 76 76 76 76 75 75 75 75 76 77 77 83 82 83 79 77 79 79 78 78 78 78 79 79 79 79 79 79 79
77 77 76 76 75 75 74 74 74 74 74 75 76 77 78 82 82 78 75 76 79 78 78 78 78 78 78 79 78 79 78 79 78
79 76 75 75 74 74 74 75 76 75 75 76 76 77 81 82 80 76 73 75 77 78 78 77 77 77 77 77 78 78 78 78 78
79 75 74 74 74 74 75 77 77 80 82 81 79 82 81 80 79 73 72 74 76 77 77 77 77 77 77 76 76 76 77 77 77
80 76 77 77 77 81 80 80 80 81 81 81 81 80 81 80 78 71 72 74 75 76 76 77 77 77 77 76 76 76 76 76 77
81 80 79 79 81 80 80 79 80 80 81 82 81 80 79 78 76 70 70 72 74 75 76 76 77 76 76 76 76 75 75 76 76
81 80 80 79 80 80 79 79 79 79 79 80 80 79 78 77 75 70 69 70 71 73 74 76 77 76 75 75 75 75 75 75 75
80 79 78 79 80 80 80 79 78 78 80 78 79 79 78 78 75 74 68 68 69 70 71 72 73 73 73 73 73 74 74 74 75
79 79 78 79 80 80 79 79 79 78 79 79 78 77 78 77 77 74 73 71 67 68 68 70 70 71 72 73 73 72 72 73 74
78 77 77 78 77 77 77 77 76 76 76 77 77 77 77 77 76 74 72 71 72 67 66 67 68 69 70 70 70 70 71 72 72
78 77 77 77 76 76 75 75 74 74 74 75 76 76 75 74 76 74 71 69 69 70 67 66 65 66 67 68 69 69 69 70 71
77 77 76 76 74 74 74 74 75 72 72 74 74 75 75 74 73 74 74 72 70 70 69 68 69 66 66 66 67 68 68 68 69
76 76 76 75 73 74 73 73 71 71 73 69 71 72 75 74 73 73 73 73 72 71 70 69 69 69 69 68 66 65 66 67 68
77 76 75 75 72 72 71 70 68 70 71 66 65 62 68 73 72 72 72 72 72 71 71 72 70 68 67 67 64 64 64 65 67
76 76 75 75 73 71 71 70 67 64 69 70 64 59 59 63 69 71 71 71 69 70 70 70 69 69 68 67 66 65 64 64 65
76 76 75 75 74 72 71 71 69 67 63 67 68 67 65 57 56 65 67 69 69 69 68 68 69 68 67 66 65 64 63 62 63
76 76 75 73 73 72 71 70 69 68 65 64 65 64 64 64 58 54 59 65 67 68 68 67 67 67 66 65 64 65 63 62 62

GFSFLT1_sfc_temp_096.txt.gz
Temp
80 80 79 79 79 78 79 79 78 79 78 79 79 79 80 79 76 74 75 75 79 80 79 79 79 79 79 79 79 79 80 80 80
79 79 78 78 78 78 78 78 78 78 77 78 78 79 80 80 75 73 72 75 79 79 79 79 79 79 79 79 79 80 79 79 79
78 78 78 77 77 77 76 76 76 76 76 77 78 79 79 78 74 72 72 77 79 79 78 78 78 79 79 79 79 79 80 79 79
77 77 77 76 76 76 76 76 76 76 76 77 78 78 78 72 71 73 70 77 79 79 78 78 78 78 79 79 79 79 79 79 79
77 76 76 75 75 75 75 76 76 77 77 77 78 78 76 70 69 66 70 76 78 78 78 78 78 78 78 79 78 79 78 78 78
71 74 75 75 75 75 76 76 76 77 77 78 77 75 67 68 66 64 73 76 77 78 77 77 77 77 77 77 77 77 77 78 78
71 71 74 75 76 76 77 77 77 75 67 67 72 66 66 66 64 63 74 76 77 77 77 77 77 77 77 76 76 76 76 77 77
65 62 64 62 71 66 69 68 67 67 66 66 66 66 65 63 63 68 72 74 76 77 76 77 76 76 76 76 76 76 76 76 76
65 63 64 64 65 66 66 64 66 67 68 66 66 65 64 63 61 62 71 72 74 75 76 77 76 75 75 75 75 75 75 75 75
65 65 64 65 65 64 64 64 65 65 67 67 66 65 64 63 60 58 70 71 72 73 74 75 75 74 74 74 74 74 75 75 75
65 65 65 64 65 65 65 65 64 64 65 65 66 64 63 62 62 59 60 69 70 71 72 72 72 73 73 73 73 73 73 74 74
66 64 65 65 65 66 66 66 65 64 66 63 64 65 64 63 62 61 58 61 68 69 69 70 71 71 72 72 71 71 72 72 73
67 65 63 64 64 64 63 62 62 62 62 61 62 62 63 63 62 62 60 58 60 64 68 68 69 70 70 70 70 70 70 71 71
67 65 65 65 64 62 63 61 61 59 59 63 61 61 61 62 67 59 60 59 59 58 66 68 66 68 69 69 69 69 69 70 70
66 64 64 64 62 60 61 60 60 59 58 66 64 60 60 60 60 59 64 59 60 59 60 57 59 67 67 68 68 68 68 69 69
64 63 64 63 61 60 61 58 58 57 57 55 55 57 60 59 58 59 59 59 60 58 58 57 56 59 69 69 69 68 68 68 68
65 63 62 61 59 59 59 58 55 55 57 53 50 48 53 56 59 57 60 58 59 59 61 58 57 56 55 59 67 65 66 66 66
65 64 62 61 59 57 58 58 56 52 54 55 52 46 44 48 54 55 55 56 55 56 57 58 58 57 55 59 60 65 65 65 66
65 64 63 61 59 58 59 61 56 54 51 53 59 53 51 46 44 51 54 56 58 55 54 55 57 56 54 60 63 65 66 65 64
65 64 63 61 60 59 58 56 55 54 52 51 50 50 49 49 45 42 46 50 52 53 52 53 53 55 55 54 58 65 65 63 63

GFSFLT1_sfc_temp_102.txt.gz
Temp
79 79 79 80 79 79 78 78 78 79 79 78 78 77 76 73 68 67 70 74 79 81 79 79 79 79 79 79 80 80 80 80 79
78 78 78 78 78 79 78 78 78 79 79 78 77 76 74 69 67 66 68 73 78 79 79 79 79 79 79 78 79 79 79 79 79
78 77 77 77 77 77 77 78 78 79 78 77 75 74 72 68 65 66 67 77 78 78 78 79 79 79 79 79 79 79 79 79 78
77 77 77 77 77 77 78 78 79 79 78 76 75 73 71 61 63 69 67 77 78 78 77 77 78 78 79 79 79 78 79 78 78
76 76 76 77 77 78 78 78 78 78 77 75 73 71 69 61 63 63 70 77 78 77 77 77 77 77 78 78 78 78 78 78 77
68 74 76 77 77 77 77 78 76 75 75 73 71 66 59 60 61 63 75 77 77 77 77 76 76 76 77 77 77 78 77 77 77
67 72 76 77 77 77 77 76 73 67 59 62 64 57 58 59 61 66 75 77 77 76 76 76 76 76 76 76 76 77 76 76 76
59 59 59 58 67 60 62 61 60 59 59 58 57 57 56 56 59 69 74 76 77 76 75 75 75 75 75 75 75 75 75 75 76
57 56 56 57 57 57 57 57 59 59 59 57 56 55 55 56 57 65 73 74 75 75 75 74 74 74 74 74 74 74 74 75 75
57 56 56 56 56 58 57 58 58 58 58 58 57 54 54 55 56 57 71 72 73 74 74 74 74 73 73 73 73 73 73 73 74
57 57 57 56 57 57 57 57 57 57 57 58 58 55 54 55 55 57 60 71 71 72 73 73 73 73 72 72 71 71 72 72 72
58 57 56 57 58 58 58 56 56 56 58 55 56 56 55 55 55 56 56 59 69 70 71 71 72 72 72 71 71 71 71 71 71
58 58 58 58 59 57 56 56 55 54 55 54 54 54 55 54 54 55 55 55 57 64 69 70 71 71 71 71 70 70 70 70 70
59 58 57 58 58 57 59 56 56 55 54 58 55 54 54 54 59 54 55 54 54 54 65 69 68 69 70 71 71 70 70 70 69
59 57 57 57 56 55 57 55 53 53 53 60 57 52 53 53 53 53 57 54 55 54 55 53 57 68 68 70 71 71 70 69 68
58 58 57 56 56 55 55 53 54 52 51 52 52 52 51 50 50 51 51 53 54 53 53 52 52 54 67 68 69 70 69 69 68
61 58 57 56 55 55 54 53 50 50 50 49 45 45 50 51 51 50 53 51 52 54 55 52 52 51 51 55 66 66 67 68 68
61 59 58 56 54 54 54 53 53 50 49 50 49 43 42 42 48 49 50 49 49 49 50 51 52 51 49 54 56 64 66 67 68
61 59 58 57 55 54 54 55 52 50 49 48 52 47 47 45 43 46 46 47 50 47 47 48 49 49 48 55 58 62 65 66 67
59 58 56 55 54 54 54 52 51 49 48 47 46 45 43 42 41 39 43 46 46 46 46 46 45 47 48 48 53 62 63 65 66